Tracking 28911 objects as of 22-May-2024
HD Live streaming from Space Station
objects crossing your sky now

CORVUS BC1

Track CORVUS BC1 now!
10-day predictions
CORVUS BC1 is classified as:


NORAD ID: 42847
Int'l Code: 2017-042Y
Perigee: 575.2 km
Apogee: 587.4 km
Inclination: 97.4 °
Period: 96.2 minutes
Semi major axis: 6952 km
RCS: Unknown
Launch date: July 14, 2017
Source: United States (US)
Launch site: TYURATAM MISSILE AND SPACE COMPLEX (TTMTR)

Uplink (MHz):
Downlink (MHz): 400.175
Beacon (MHz):
Mode: FM
Call sign:
Status: Inactive

Your satellite tracking list
Your tracking list is empty




NASA's NSSDC Master Catalog

Two Line Element Set (TLE):
1 42847U 17042Y   24142.49402335  .00005200  00000-0  44860-3 0  9994
2 42847  97.3738 329.4899 0008778 139.7678 220.4196 14.97647416373465
Source of the keplerian elements: AFSPC